Location: Unspecified
(22.6800°N, 112.2000°E)
Time: 09:22:35
(UTC+08:00)

S-56A Canister/Altair - Pass Details

Date: 25 July 2021
Orbit: 632 x 2500 km, 38.9° (Epoch: 27 September)

Event Time Altitude Azimuth Distance (km) Brightness Sun altitude
Rises 12:48:23 0° 181° (S) 5,018 11.7 86.1°
Reaches altitude 10° 12:53:19 10° 162° (SSE) 4,378 11.6 85.2°
Maximum altitude 13:00:12 17° 127° (SE) 4,229 11.5 83.9°
Drops below altitude 10° 13:07:57 10° 94° (E) 5,055 11.8 82.3°
Sets 13:14:17 0° 77° (ENE) 6,171 12.0 80.9°
